Regional Weather Roundup
Issued by NWS

Home | Current Version | Previous Version | Graphics & Text | Print | Product List | Glossary On
Versions: 1 2 3 4 5 6 7 8 9 10 11 12 13 14 15 16 17 18 19 20 21 22 23 24 25 26 27 28 29 30 31 32 33 34 35 36 37 38 39 40 41 42 43 44 45 46 47 48 49 50
831
ASUS44 KJAN 180110
RWRMS

MISSISSIPPI HOURLY WEATHER ROUNDUP
NATIONAL WEATHER SERVICE JACKSON MS
800 PM CDT FRI APR 17 2015

NOTE: "FAIR: INDICATES FEW OR NO CLOUDS BELOW 12,000 FEET WITH NO
SIGNIFICANT WEATHER AND/OR OBSTRUCTIONS TO VISIBILITY.

MSZ001>002-007>008-010>013-018>021-025>028-034>036-180200-
NORTHWEST MISSISSIPPI

CITY           SKY/WX    TMP DP  RH WIND       PRES   REMARKS
CLARKSDALE     MOCLDY    72  66  83 CALM      30.00R
CLEVELAND      FAIR      70  66  87 NE6       29.97R
GREENWOOD      CLOUDY    70  63  78 E6        29.97R
GREENVILLE     PTCLDY    71  63  75 NE6       29.95R
OLIVE BRANCH   MOCLDY    64  64 100 CALM      30.01R
OXFORD         CLOUDY    64  63  94 NE5       30.03R
TUNICA         PTCLDY    70  64  83 NE5       30.00R
$$

MSZ003>006-009-014>017-022>024-029>033-037>039-180200-
NORTHEAST MISSISSIPPI

CITY           SKY/WX    TMP DP  RH WIND       PRES   REMARKS
COLUMBUS AFB   MOCLDY    66  64  94 N3        29.98R
CORINTH        CLOUDY    68  61  77 CALM      30.00R
GOLDN TRIANGLE PTCLDY    64  63  94 NE5       29.97R
STARKVILLE     CLOUDY    64  63  94 N3        29.99R
TUPELO         PTCLDY    65  61  87 NE6       29.99R
$$

MSZ040-058-180200-
CENTRAL MISSISSIPPI

CITY           SKY/WX    TMP DP  RH WIND       PRES   REMARKS
JACKSON INTL   PTCLDY    69  64  84 N5        29.94R
JACKSON HAWKNS MOCLDY    71  64  78 N3        29.94R
MERIDIAN KEY   CLOUDY    67  62  84 E6        29.96S
MERIDIAN NAS   CLOUDY    66  62  87 SE3       29.97R
RAYMOND        FAIR      70  66  88 CALM      29.93R
VICKSBURG      MOCLDY    68  64  87 CALM      29.93R
$$

MSZ059>079-180200-
SOUTH MISSISSIPPI

CITY           SKY/WX    TMP DP  RH WIND       PRES   REMARKS
BROOKHAVEN       N/A     72  72 100 CALM      29.96R
HATTIESBURG    PTCLDY    75  67  76 N7        29.94R
MCCOMB         MOCLDY    74  67  78 CALM      29.93R
NATCHEZ        MOCLDY    72  64  78 NE3       29.94R
PINE BELT      PTCLDY    70  54  56 N6        29.95R
$$

MSZ080>082-180200-
COASTAL MISSISSIPPI

CITY           SKY/WX    TMP DP  RH WIND       PRES   REMARKS
BILOXI         MOCLDY    75  73  94 SW9       29.91R
PASCAGOULA     MOCLDY    74  72  93 S3        29.92R
GULFPORT       MOCLDY    76  69  79 SW5       29.91R
$$



USA.gov is the U.S. government's official web portal to all federal, state and local government web resources and services.